{"data":{"norad_id":55661,"intl_designator":"2023-021AK","name":"STARLINK-5475","alt_names":[],"object_type":"PAYLOAD","status":"ACTIVE","operator":null,"country":"US","launch_date":"2023-02-17","launch_site_code":"AFWTR","launch_vehicle":null,"mission":null,"orbit_class":"UNKNOWN","rcs_meters":null,"size_class":null,"mass_kg":null,"dimensions":null,"purposes":["comms"],"wikipedia_slug":null,"has_3d_model":false,"image_url":null,"decayed_at":null,"tle_current":{"epoch":"2026-05-24T22:18:19.590624Z","epoch_age_seconds":75100,"freshness":"FRESH","line1":"1 55661U 23021AK  26144.92939341  .00000511  00000+0  50625-4 0  9996","line2":"2 55661  69.9996 332.2631 0002610 269.9070  90.1790 14.98330939180706","mean_motion":14.98330939,"eccentricity":0.000261,"inclination_deg":69.9996,"raan_deg":332.2631,"arg_perigee_deg":269.907,"mean_anomaly_deg":90.179,"bstar":5.0625e-5,"rev_number":18070,"period_min":96.106938895693,"perigee_km":570.23898757924,"apogee_km":573.86698675254,"semimajor_km":6950.1899871659,"source":"CELESTRAK","updated_at":"2026-05-25T13:38:17.873885Z"}}}